Weather reports worldwide

Advertisment
Capo Palinuro, Italy (16310): temperature & dewpoint: 10.09.2019 05:00:00 - 16.09.2019 05:00:00 (CEST)Capo Palinuro, Italy (16310): wind speed: 10.09.2019 05:00:00 - 16.09.2019 05:00:00 (CEST)Capo Palinuro, Italy (16310): wind direction: 10.09.2019 05:00:00 - 16.09.2019 05:00:00 (CEST)Capo Palinuro, Italy (16310): reduced air pressure: 10.09.2019 05:00:00 - 16.09.2019 05:00:00 (CEST)Capo Palinuro, Italy (16310): visibility: 10.09.2019 05:00:00 - 16.09.2019 05:00:00 (CEST)Capo Palinuro, Italy (16310): sunshine duration: 10.09.2019 05:00:00 - 16.09.2019 05:00:00 (CEST)
Date & Time tt [°C] td [°C] ff [km/h] ff [kn] dd ppp [hPa] vv [km] sd [min]
16.09.2019 05:00:00 - - - - - - - -
16.09.2019 04:00:00 24,6 23,6 0 0 N 1020,4 20 -
16.09.2019 03:00:00 24,6 23,7 5 3 WNW 1020,6 20 -
16.09.2019 02:00:00 24,6 23,7 8 4 NW 1020,9 20 -
16.09.2019 01:00:00 24,8 23,4 8 4 WNW 1020,9 20 -
16.09.2019 00:00:00 24,8 22,9 8 4 NW 1020,9 20 -
15.09.2019 23:00:00 24,6 22,5 0 0 N 1020,9 20 -
15.09.2019 22:00:00 24,8 23,6 4 2 NW 1021,0 20 -
15.09.2019 21:00:00 25,0 24,0 5 3 WNW 1020,9 20 -
15.09.2019 20:00:00 25,4 24,5 0 0 N 1021,3 20 -
15.09.2019 19:00:00 27,0 24,8 0 0 N 1021,2 20 36
15.09.2019 18:00:00 27,0 23,7 0 0 N 1021,3 20 60
15.09.2019 17:00:00 27,6 23,2 9 5 WSW 1021,6 20 60
15.09.2019 16:00:00 28,6 22,1 8 4 SW 1021,9 20 60
15.09.2019 15:00:00 28,4 21,9 9 5 WSW 1022,2 20 60
15.09.2019 14:00:00 28,4 21,7 11 6 SW 1022,3 20 60
15.09.2019 13:00:00 28,4 20,4 9 5 WSW 1022,3 20 60
15.09.2019 12:00:00 28,4 18,8 13 7 SW 1022,3 20 60
15.09.2019 11:00:00 27,4 18,4 5 3 WSW 1022,3 20 60
15.09.2019 10:00:00 27,0 18,0 8 4 ENE 1022,2 20 60
15.09.2019 09:00:00 26,0 17,1 15 8 ENE 1022,3 20 60
15.09.2019 08:00:00 24,4 16,9 8 4 NE 1021,9 20 60
15.09.2019 07:00:00 24,6 16,3 5 3 ENE 1021,5 20 -
15.09.2019 06:00:00 24,0 17,0 5 3 NE 1022,1 20 -
15.09.2019 05:00:00 24,0 17,0 9 5 NE 1022,0 20 -
15.09.2019 04:00:00 24,0 17,3 5 3 N 1022,2 20 -
15.09.2019 03:00:00 24,0 17,0 8 4 NNW 1022,2 20 -
15.09.2019 02:00:00 24,4 21,3 8 4 NNE 1022,2 20 -
15.09.2019 01:00:00 24,4 21,3 9 5 E 1022,3 20 -
15.09.2019 00:00:00 25,0 21,3 15 8 ENE 1022,3 20 -
14.09.2019 23:00:00 25,0 21,9 5 3 N 1022,2 20 -
14.09.2019 22:00:00 25,0 22,1 8 4 ENE 1022,3 20 -
14.09.2019 21:00:00 25,2 22,9 11 6 NE 1022,3 20 -
14.09.2019 20:00:00 26,0 22,7 13 7 ENE 1022,2 20 -
14.09.2019 19:00:00 26,0 22,7 9 5 E 1022,3 20 -
14.09.2019 18:00:00 27,0 22,8 13 7 ENE 1022,2 20 60
14.09.2019 17:00:00 26,2 21,9 16 9 N 1022,7 20 60
14.09.2019 16:00:00 28,0 22,7 5 3 NE 1023,0 20 60
14.09.2019 15:00:00 25,6 18,3 13 7 ENE 1023,3 20 60
14.09.2019 14:00:00 28,8 21,6 8 4 NE 1023,1 20 60
14.09.2019 13:00:00 27,8 18,8 11 6 NNE 1023,2 20 60
14.09.2019 12:00:00 28,0 19,0 13 7 ENE 1023,1 20 60
14.09.2019 11:00:00 28,2 17,4 4 2 NE 1023,1 20 60
14.09.2019 10:00:00 26,8 18,4 5 3 NNE 1023,1 20 60
14.09.2019 09:00:00 25,2 18,6 5 3 N 1023,1 20 18
14.09.2019 08:00:00 24,0 17,5 8 4 NE 1022,8 20 0
14.09.2019 07:00:00 24,4 17,2 4 2 N 1022,8 20 -
14.09.2019 06:00:00 24,0 17,0 8 4 N 1022,8 20 -
14.09.2019 05:00:00 24,0 17,3 9 5 N 1022,9 20 -
14.09.2019 04:00:00 24,4 17,9 9 5 NNE 1023,8 20 -
14.09.2019 03:00:00 24,0 16,8 5 3 N 1023,5 20 -
14.09.2019 02:00:00 24,8 18,3 0 0 N 1023,4 20 -
14.09.2019 01:00:00 24,6 18,5 0 0 N 1023,3 20 -
14.09.2019 00:00:00 25,8 19,4 0 0 N 1023,2 20 -
13.09.2019 23:00:00 25,8 19,7 4 2 N 1023,3 20 -
13.09.2019 22:00:00 26,0 19,7 4 2 N 1023,2 20 -
13.09.2019 21:00:00 27,0 20,3 5 3 N 1023,0 20 -
13.09.2019 20:00:00 26,8 20,2 9 5 E 1022,8 20 24
13.09.2019 19:00:00 27,4 25,0 8 4 N 1022,9 20 60
13.09.2019 18:00:00 27,8 25,0 5 3 NNW 1022,9 20 60
13.09.2019 17:00:00 28,8 23,9 5 3 NNW 1023,1 20 60
13.09.2019 16:00:00 28,6 22,1 5 3 NW 1023,1 20 60
13.09.2019 15:00:00 28,4 21,9 8 4 NNE 1023,1 20 60
13.09.2019 14:00:00 29,0 19,0 8 4 ESE 1023,3 20 60
13.09.2019 13:00:00 29,0 19,0 8 4 ESE 1023,5 20 60
13.09.2019 12:00:00 28,6 19,2 8 4 ENE 1023,6 20 60
13.09.2019 11:00:00 28,6 19,2 8 4 SSE 1023,6 20 60
13.09.2019 10:00:00 27,4 19,0 8 4 WNW 1023,7 20 60
13.09.2019 09:00:00 25,2 18,9 8 4 NW 1023,3 20 60
13.09.2019 08:00:00 24,8 18,5 5 3 WNW 1023,1 20 30
13.09.2019 07:00:00 23,6 17,8 9 5 WNW 1023,2 20 0
13.09.2019 06:00:00 23,6 17,8 8 4 NW 1023,1 20 -
13.09.2019 05:00:00 23,8 17,8 11 6 NW 1023,1 20 -
13.09.2019 04:00:00 24,0 18,2 11 6 N 1022,9 20 -
13.09.2019 03:00:00 24,0 18,2 5 3 NNW 1022,9 20 -
13.09.2019 02:00:00 25,0 17,2 8 4 WNW 1022,8 20 -
13.09.2019 01:00:00 25,0 17,2 8 4 WNW 1022,8 20 -
13.09.2019 00:00:00 25,2 17,4 5 3 NW 1022,8 20 -
12.09.2019 23:00:00 25,2 18,9 8 4 NW 1022,6 20 -
12.09.2019 22:00:00 25,2 22,9 5 3 NNW 1022,5 20 -
12.09.2019 21:00:00 26,0 23,7 5 3 NW 1022,3 20 -
12.09.2019 20:00:00 26,0 23,9 11 6 NNW 1022,2 20 -
12.09.2019 19:00:00 26,4 24,6 24 13 NW 1022,1 20 30
12.09.2019 18:00:00 27,0 24,7 18 10 WNW 1022,1 20 60
12.09.2019 17:00:00 27,0 23,9 13 7 W 1022,3 20 60
12.09.2019 16:00:00 28,0 22,9 11 6 WNW 1022,5 20 60
12.09.2019 15:00:00 29,0 21,2 11 6 W 1022,4 20 60
12.09.2019 14:00:00 26,8 19,2 11 6 W 1022,7 20 60
12.09.2019 13:00:00 26,4 22,0 11 6 WNW 1022,7 20 60
12.09.2019 12:00:00 26,0 21,2 9 5 SW 1022,7 20 60
12.09.2019 11:00:00 25,6 20,6 9 5 SSW 1021,8 20 60
12.09.2019 10:00:00 25,0 19,4 8 4 SW 1021,3 20 60
12.09.2019 09:00:00 23,6 17,8 9 5 SSE 1020,9 20 60
12.09.2019 08:00:00 22,4 18,4 9 5 N 1020,5 20 60
12.09.2019 07:00:00 22,0 19,5 11 6 NNE 1020,1 20 -
12.09.2019 06:00:00 22,4 18,8 11 6 N 1019,7 20 -
12.09.2019 05:00:00 22,4 18,8 11 6 NNE 1019,4 20 -
12.09.2019 04:00:00 - - - - - - - -
12.09.2019 03:00:00 22,4 18,4 11 6 SW 1019,3 20 -
12.09.2019 02:00:00 22,6 18,0 11 6 NNW 1018,9 20 -
12.09.2019 01:00:00 22,6 18,0 11 6 SSE 1018,9 20 -
12.09.2019 00:00:00 22,8 19,2 9 5 NW 1018,7 20 -
11.09.2019 23:00:00 22,4 19,8 13 7 SSE 1017,4 20 -
11.09.2019 22:00:00 22,4 19,6 16 9 SW 1017,8 20 -
11.09.2019 21:00:00 23,6 21,9 15 8 SSE 1016,6 20 -
11.09.2019 20:00:00 23,8 21,7 15 8 SW 1017,0 20 -
11.09.2019 19:00:00 24,0 21,3 16 9 S 1016,7 20 54
11.09.2019 18:00:00 25,4 21,3 15 8 SSW 1016,4 20 60
11.09.2019 17:00:00 26,4 20,2 15 8 SSE 1016,1 20 60
11.09.2019 16:00:00 26,6 19,5 15 8 SSE 1015,9 20 60
11.09.2019 15:00:00 26,8 19,2 15 8 SSE 1015,5 20 60
11.09.2019 14:00:00 26,8 18,9 13 7 SE 1015,2 20 60
11.09.2019 13:00:00 26,6 17,7 15 8 SSE 1014,9 20 60
11.09.2019 12:00:00 26,6 16,8 16 9 SSE 1014,7 20 60
11.09.2019 11:00:00 26,4 16,9 13 7 ESE 1014,6 20 60
11.09.2019 10:00:00 23,0 16,3 0 0 N 1014,3 20 0
11.09.2019 09:00:00 22,8 16,6 9 5 SW 1014,2 20 0
11.09.2019 08:00:00 22,6 16,4 9 5 SSW 1013,3 20 0
11.09.2019 07:00:00 22,2 14,1 0 0 N 1012,9 20 12
11.09.2019 06:00:00 22,6 16,9 0 0 N 1012,3 20 -
11.09.2019 05:00:00 21,8 15,2 9 5 SW 1012,4 20 -
11.09.2019 04:00:00 22,0 15,8 0 0 N 1012,4 20 -
11.09.2019 03:00:00 22,0 18,0 9 5 SW 1012,4 20 -
11.09.2019 02:00:00 22,0 17,4 9 5 SW 1012,4 20 -
11.09.2019 01:00:00 22,4 16,7 9 5 SW 1012,3 20 -
11.09.2019 00:00:00 22,0 15,1 9 5 SSW 1012,4 20 -
10.09.2019 23:00:00 22,4 15,5 0 0 N 1012,3 20 -
10.09.2019 22:00:00 22,2 17,6 11 6 SW 1012,3 20 -
10.09.2019 21:00:00 22,0 18,4 9 5 SSW 1012,4 20 -
10.09.2019 20:00:00 22,0 18,4 9 5 SSW 1012,4 20 -
10.09.2019 19:00:00 23,0 18,5 9 5 SSW 1012,3 20 48
10.09.2019 18:00:00 23,0 19,0 0 0 N 1013,2 20 60
10.09.2019 17:00:00 22,6 17,3 9 5 SSW 1013,4 20 60
10.09.2019 16:00:00 24,0 17,7 11 6 SW 1013,3 20 60
10.09.2019 15:00:00 24,0 17,7 9 5 SW 1014,0 20 60
10.09.2019 14:00:00 24,0 17,7 0 0 N 1014,3 20 60
10.09.2019 13:00:00 24,0 17,0 9 5 SW 1014,3 20 60
10.09.2019 12:00:00 24,6 16,6 0 0 N 1014,2 20 60
10.09.2019 11:00:00 23,0 17,9 0 0 N 1014,3 20 48
10.09.2019 10:00:00 21,8 17,2 9 5 NE 1014,6 20 12
10.09.2019 09:00:00 23,0 17,7 11 6 ENE 1014,5 20 30
10.09.2019 08:00:00 20,2 15,6 11 6 NE 1014,7 20 0
10.09.2019 07:00:00 19,4 14,9 11 6 NE 1014,9 20 0
10.09.2019 06:00:00 20,0 16,0 8 4 NNE 1014,8 20 -
10.09.2019 05:00:00 20,0 15,9 15 8 N 1015,3 20 -

tt = temperature
td = dewpoint
ff = wind speed
dd = wind direction
ppp = reduced air pressure
vv = visibility
sd = sunshine duration

Next stations